Location: ??????
(56.0120°N, 39.1740°E)
Time: 09:16:01
(UTC+00:00)

SWAS - Pass Details

Date: 14 April 2026
Orbit: 532 x 544 km, 69.9° (Epoch: 19 May)

Event Time Altitude Azimuth Distance (km) Brightness Sun altitude
Rises 19:28:10 0° 323° (NW) 2,714 9.4 -20.1°
Reaches altitude 10° 19:30:22 10° 325° (NW) 1,820 8.2 -20.3°
Maximum altitude 19:34:26 77° 52° (NE) 565 4.3 -20.6°
Enters shadow 19:35:02 62° 117° (ESE) 620 4.2 -20.6°
